Flag for Honduras Weather past 2 weeks in San Pedro Sula, Honduras

Now
77 °F

Drizzle. Broken clouds.


Feels Like: 78 °F
Forecast: 74 / 83 °F
Wind: No wind

Location: La Mesa San Pedro Sula

Current Time: Mar 28, 2015 at 11:49:51 AM

Latest Report: Mar 28, 2015 at 11:00 AM


Visibility: 4 mi

Pressure: 30.09 "Hg

Humidity: 94%

Dew point: 75 °F

Location of San Pedro SulaLocation

Historic Weather in San Pedro Sula — Graph

°F

San Pedro Sula temperature yesterday

Maximum temperature yesterday: 95 °F (at 3:00 PM)
Minimum temperature yesterday: 73 °F (at 4:00 AM)
Average temperature yesterday: 83 °F

Past Weeks' High & Low Weather Summary

 TemperatureHumidityPressure
High97 °F (Mar 26, 2:00 PM)100% (Mar 14, 12:00 AM)30.09 "Hg (Mar 14, 12:00 AM)
Low68 °F (Mar 18, 6:00 AM)44% (Mar 26, 1:00 PM)29.80 "Hg (Mar 26, 2:00 PM)
Average80 °F83%29.96 "Hg
* Reported Mar 13 10:00 AM — Mar 28 10:00 AM, San Pedro Sula, Weather by CustomWeather, © 2015

Note: Actual official high and low records may vary slightly from our data, if they occured in-between our weather recording intervals... More about our weather records

Advertising

San Pedro Sula weather history for previous 24 hours

 ConditionsComfort  
Time TempWeatherWind HumidityBarometerVisibility
10:00 AM
Sat, Mar 28
77 °FDrizzle. Broken clouds.No wind100%30.09 "HgN/A
9:00 AM77 °FBroken clouds.No wind94%30.09 "HgN/A
8:00 AM75 °FBroken clouds.No wind100%30.09 "HgN/A
7:00 AM75 °FBroken clouds.3 mph100%30.07 "HgN/A
6:00 AM73 °FDrizzle. Broken clouds.No wind100%30.07 "Hg5 mi
5:00 AM73 °FPassing clouds.3 mph100%30.04 "HgN/A
4:00 AM73 °FPassing clouds.5 mph100%30.01 "HgN/A
3:00 AM73 °FPassing clouds.3 mph100%30.01 "HgN/A
2:00 AM73 °FThunderstorms. Partly cloudy.8 mph100%30.01 "Hg2 mi
1:00 AM73 °FThunderstorms. Passing clouds.15 mph100%30.04 "Hg2 mi
12:00 AM79 °FThunderstorms. Partly cloudy.5 mph100%30.04 "HgN/A
11:00 PM
Fri, Mar 27
79 °FPartly cloudy.3 mph100%30.04 "HgN/A
10:00 PM79 °FPassing clouds.3 mph100%30.01 "HgN/A
9:00 PM81 °FPassing clouds.5 mph94%30.01 "HgN/A
8:00 PM81 °FPassing clouds.5 mph94%29.98 "HgN/A
7:00 PM82 °FPassing clouds.3 mph89%29.95 "HgN/A
6:00 PM84 °FPartly sunny.9 mph84%29.89 "HgN/A
5:00 PM90 °FPartly sunny.14 mph63%29.86 "HgN/A
4:00 PM93 °FPartly sunny.15 mph47%29.83 "HgN/A
3:00 PM95 °FScattered clouds.16 mph44%29.83 "HgN/A
2:00 PM93 °FPartly sunny.12 mph59%29.86 "HgN/A
1:00 PM93 °FScattered clouds.9 mph59%29.89 "HgN/A
12:00 PM93 °FScattered clouds.7 mph59%29.92 "HgN/A
11:00 AM91 °FPassing clouds.No wind56%29.92 "HgN/A
Weather by CustomWeather, © 2015

See weather overviewHow to use our weather pages